Location: Clarion
(42.7316°N, 93.7330°W)
Time: 01:53:53
(UTC+00:00)

Cosmos 1553 Rocket - Pass Details

Date: 22 April 2026
Orbit: 942 x 1006 km, 82.9° (Epoch: 20 May)

Event Time Altitude Azimuth Distance (km) Brightness Sun altitude
Exits shadow 09:38:04 10° 181° (S) 2,662 5.9 -17.8°
Maximum altitude 09:44:09 79° 95° (E) 992 4.1 -16.9°
Drops below altitude 10° 09:50:26 10° 10° (N) 2,749 7.0 -16.0°
Sets 09:52:59 0° 9° (N) 3,710 7.7 -15.6°
